Temp
18 19 20 21 21 20 20 18 16 16 17 16 15 15 14 14 14 14 15 15 15 15 15 14 13 12 12 11 10 10 9 7 8 8 9 9 10 10 10 10 10 9 9
18 18 17 19 19 19 18 15 16 15 15 15 15 15 14 13 13 13 13 14 14 14 14 13 12 11 11 10 9 9 8 6 6 6 6 9 10 9 9 9 9 8 8
19 19 17 17 18 17 16 15 14 13 14 14 15 13 13 12 12 12 12 13 13 13 13 12 12 10 10 9 8 8 7 6 5 5 7 8 8 6 7 8 7 7 5
17 19 18 16 15 17 16 15 14 14 14 15 15 16 13 12 11 12 12 12 12 12 12 11 10 10 9 8 7 6 6 6 4 5 4 4 4 6 6 6 6 4 4
17 18 17 17 16 15 15 14 14 13 14 15 15 15 12 12 12 11 11 11 11 11 11 10 9 9 8 7 7 6 5 5 4 3 3 3 3 2 4 5 5 3 4
16 16 16 15 13 14 14 14 14 13 14 14 14 14 14 13 11 10 10 10 10 10 9 9 9 8 7 7 6 5 5 4 3 3 2 2 3 3 2 3 3 3 3
15 14 14 13 12 12 13 13 13 13 13 13 13 14 15 15 13 11 10 10 9 9 8 8 8 7 7 6 6 5 4 4 3 3 2 2 1 1 1 1 2 2 1
15 13 13 14 13 12 12 13 13 12 13 13 13 14 16 14 12 12 11 10 10 9 8 7 7 7 6 6 5 5 4 3 3 2 2 1 1 0 -0 -0 -0 1 3
14 14 12 13 12 12 12 13 12 12 12 12 13 13 13 13 12 11 10 10 9 8 7 7 6 6 5 5 5 4 4 3 2 2 1 1 1 0 -1 -1 -1 -1 0
14 13 12 12 11 12 12 12 12 12 12 12 13 13 12 12 11 10 10 9 8 7 7 6 6 5 5 4 4 4 3 2 2 1 1 0 0 -1 -1 -1 -2 -2 -1
14 13 12 11 11 10 11 11 11 12 12 12 13 12 12 11 11 10 9 8 7 7 6 5 5 5 4 4 4 3 2 1 1 0 -0 -0 -1 -1 -1 -2 -2 -2 -2
13 11 10 9 10 10 9 10 10 11 12 12 12 11 11 10 10 9 8 7 7 6 5 5 4 4 4 3 3 2 1 1 -0 -1 -1 -2 -2 -2 -2 -2 -2 -2 -2
9 9 9 10 9 8 8 8 9 10 11 11 11 10 9 9 9 8 7 6 6 5 4 4 4 3 3 2 2 1 0 -0 -1 -1 -2 -2 -3 -3 -3 -3 -2 -2 -2
9 9 9 9 8 8 7 7 7 9 10 10 9 9 8 8 7 6 6 5 4 4 4 3 3 3 2 2 1 0 -0 -1 -1 -2 -2 -2 -3 -3 -3 -2 -2 -2 -2
9 9 8 8 7 6 6 6 7 8 9 9 8 8 7 7 6 5 4 4 4 3 3 3 2 2 2 1 -0 -0 -1 -1 -2 -2 -2 -2 -2 -3 -2 -2 -2 -2 -2
10 9 8 8 7 7 6 5 6 7 9 8 7 6 5 5 5 4 3 3 3 3 2 2 2 1 1 -0 -1 -1 -1 -2 -2 -3 -3 -2 -2 -3 -3 -3 -3 -2 -3
10 9 8 8 7 6 6 5 6 7 8 7 5 5 5 4 4 3 3 3 2 2 1 1 1 -0 -1 -2 -2 -1 -2 -2 -3 -3 -3 -3 -3 -3 -4 -4 -3 -3 -3
9 9 8 6 5 6 6 6 6 6 6 5 4 4 4 3 3 3 2 2 1 1 1 -0 -1 -1 -2 -3 -2 -2 -3 -3 -3 -3 -3 -3 -3 -4 -4 -3 -3 -4 -4
9 8 7 6 5 5 5 6 5 5 5 4 4 3 3 3 3 2 1 1 1 0 -0 -1 -2 -2 -2 -3 -3 -3 -3 -3 -3 -3 -3 -3 -3 -3 -2 -3 -4 -3 -4
7 6 5 5 5 4 5 4 3 4 3 3 3 3 3 3 2 1 1 0 -0 -1 -1 -2 -2 -3 -3 -3 -4 -3 -3 -3 -3 -3 -3 -4 -3 -3 -3 -3 -4 -5 -5
5 5 5 5 3 4 5 3 3 2 2 3 2 2 2 2 1 1 0 -1 -1 -2 -2 -2 -2 -3 -4 -4 -4 -4 -3 -3 -3 -3 -3 -3 -4 -4 -4 -4 -5 -5 -5
4 4 3 2 3 4 4 2 0 2 2 2 2 1 1 0 0 -0 -1 -2 -2 -3 -3 -3 -4 -4 -4 -5 -5 -4 -3 -3 -3 -3 -3 -4 -4 -4 -5 -5 -6 -5 -5
3 3 2 2 2 3 4 1 0 2 2 2 0 0 -0 -1 -1 -2 -2 -3 -3 -4 -4 -4 -4 -5 -5 -5 -5 -4 -4 -3 -3 -3 -4 -4 -5 -6 -6 -7 -6 -6 -7
2 2 2 1 -0 2 2 2 2 2 2 0 -0 -1 -1 -2 -2 -2 -3 -3 -4 -4 -5 -5 -5 -5 -5 -5 -5 -5 -4 -4 -4 -4 -5 -6 -6 -7 -7 -7 -7 -7 -7
2 2 1 -0 -1 1 1 1 1 2 1 -0 -1 -2 -2 -2 -2 -3 -4 -4 -4 -4 -4 -5 -5 -5 -5 -5 -4 -4 -4 -4 -4 -4 -6 -7 -7 -8 -8 -8 -8 -8 -8
0 -0 -1 -1 -1 1 1 1 1 1 1 -1 -2 -2 -2 -3 -3 -4 -4 -4 -5 -5 -5 -5 -5 -5 -5 -5 -5 -4 -4 -4 -5 -6 -7 -8 -8 -8 -8 -8 -8 -8 -8
Height
739 738 737 739 740 740 741 743 747 750 753 758 766 775 781 787 791 795 798 801 804 806 810 811 813 814 813 814 814 814 812 808 803 800 795 794 794 795 796 795 794 794 793
735 733 732 733 734 735 737 742 746 747 750 753 760 767 777 786 790 795 799 802 804 806 808 811 812 814 814 815 814 812 811 809 806 805 803 799 796 794 794 793 793 792 792
726 725 727 727 728 730 733 737 740 745 748 752 758 764 776 785 791 796 799 801 804 806 807 810 812 814 814 814 813 812 812 810 808 807 808 803 803 803 793 792 791 791 790
717 716 718 721 722 723 730 734 738 743 746 751 755 757 769 779 786 791 796 800 803 805 806 809 812 813 814 813 813 812 811 810 809 808 809 809 810 806 797 793 791 790 788
707 707 709 711 713 718 725 730 737 740 745 750 753 756 767 775 781 790 794 799 802 804 807 809 812 813 813 813 812 812 811 810 809 809 810 808 808 808 806 791 787 786 783
700 701 702 707 708 716 722 728 733 738 744 749 753 755 762 771 780 787 793 798 800 803 807 810 811 812 812 811 811 812 810 809 809 809 809 809 808 806 804 798 789 785 779
697 697 698 702 703 709 716 724 730 737 742 748 752 755 760 768 775 783 790 793 797 802 806 809 810 811 811 810 811 811 809 809 808 808 807 806 805 804 802 798 791 783 777
691 693 694 695 699 704 710 718 725 732 739 746 751 757 760 768 775 783 789 792 795 800 804 807 809 809 810 810 810 809 808 807 807 806 805 804 803 801 799 797 793 777 771
687 685 689 694 696 701 707 714 722 730 738 743 749 755 760 767 775 784 788 791 794 799 803 806 807 808 809 809 808 808 807 806 805 804 802 801 800 798 796 794 792 788 770
679 682 686 689 696 701 706 714 722 728 737 744 749 754 761 769 777 783 787 791 794 798 802 805 806 807 807 808 807 806 805 804 802 801 800 798 796 794 792 790 788 786 781
675 676 681 689 696 701 706 712 720 728 737 744 750 756 763 770 777 782 787 791 794 797 801 804 805 805 806 806 805 804 803 801 800 799 796 794 792 790 787 786 783 780 777
672 676 681 686 695 702 707 713 720 728 737 745 753 759 764 770 776 782 787 791 794 797 800 802 804 804 804 803 803 802 800 798 796 794 792 790 788 786 783 781 778 775 771
678 681 683 687 694 702 708 714 721 729 738 746 754 761 766 770 775 781 787 791 794 797 799 801 802 802 802 801 800 798 797 795 793 791 788 786 784 782 779 777 773 769 763
684 684 686 690 697 703 710 716 723 731 739 747 755 762 768 772 776 782 787 790 794 796 798 800 800 800 799 798 797 795 793 791 789 787 785 783 780 778 775 772 767 762 756
686 689 692 694 701 707 713 719 726 733 741 748 757 764 770 774 778 783 787 790 793 795 797 798 799 798 797 796 794 792 790 787 785 783 781 778 775 773 770 766 761 756 749
687 691 695 699 704 710 716 723 729 737 743 751 759 765 772 776 779 784 787 790 792 795 797 797 797 796 794 792 791 789 786 784 782 779 776 773 770 767 764 760 755 750 742
686 692 697 702 707 713 718 725 733 740 746 754 762 768 773 776 780 784 787 790 792 794 795 795 794 793 791 789 787 785 783 780 777 774 771 768 765 761 756 751 746 740 738
688 693 699 705 712 717 724 729 736 743 751 758 765 771 774 777 781 784 787 790 792 793 793 793 792 789 787 786 784 782 779 776 773 770 766 762 759 755 750 744 738 734 729
689 694 702 708 714 720 727 732 741 749 755 762 768 772 775 778 782 784 787 790 791 791 791 791 788 787 785 783 781 778 775 772 769 765 761 758 754 750 744 739 733 727 722
691 698 706 713 717 726 730 736 746 753 760 765 770 774 777 779 782 786 788 789 790 790 789 788 786 784 782 780 777 775 771 767 764 760 757 754 750 744 739 735 729 723 717
697 703 710 717 724 728 733 742 751 758 763 768 772 775 778 781 784 785 787 789 789 789 787 786 783 782 779 777 774 771 767 764 760 756 752 749 745 740 735 731 726 720 713
706 709 714 722 729 733 738 748 755 761 766 770 773 777 780 782 784 786 788 788 788 787 785 783 780 778 776 773 770 768 765 761 757 752 748 744 740 736 731 726 721 716 710
713 718 719 727 736 741 744 750 759 764 768 772 775 779 781 784 786 787 788 788 786 785 784 782 779 775 772 769 766 764 760 757 753 749 745 740 736 731 726 722 718 713 707
720 725 728 734 741 746 750 754 762 767 770 774 778 781 783 785 787 787 787 786 785 784 782 779 776 773 770 767 763 759 756 753 749 745 740 737 732 728 724 718 714 710 705
726 730 733 739 746 751 756 761 766 770 773 777 781 783 785 786 787 787 786 785 784 783 780 778 775 771 767 764 761 757 753 749 746 741 737 734 729 725 720 716 711 706 701
731 735 740 745 752 757 762 767 771 774 776 780 783 785 786 786 787 786 785 784 782 780 778 776 773 769 765 761 758 753 750 746 742 738 735 732 729 724 719 714 708 702 697
Wind_Speed
13 20 23 19 18 17 16 18 23 29 35 35 33 28 26 24 25 26 24 22 21 18 13 11 9 9 11 11 11 10 12 15 21 12 11 6 3 2 2 18 11 9 12
12 12 15 14 16 17 15 17 21 30 34 37 30 29 32 26 27 25 24 23 21 17 14 11 10 10 10 9 11 13 11 11 17 9 3 4 4 4 20 6 11 11 17
18 17 13 18 19 19 20 21 24 27 29 34 33 34 29 29 24 25 25 23 20 17 13 11 10 9 9 10 11 12 12 9 11 13 6 2 2 9 8 16 4 17 10
17 18 14 13 20 26 22 21 26 28 31 36 38 41 33 28 23 32 26 23 18 16 13 10 9 8 8 9 9 9 10 9 8 5 8 3 2 3 5 5 12 5 21
16 18 16 22 24 25 27 26 28 29 33 37 38 39 27 23 34 30 28 23 19 15 13 10 9 8 7 8 8 8 8 9 6 5 4 4 5 3 4 8 12 21 16
11 13 15 14 16 23 26 28 30 29 34 36 35 37 37 33 36 32 28 24 20 16 12 10 7 7 6 6 7 7 7 7 6 4 4 2 3 5 5 6 16 17 14
8 9 11 12 20 27 30 29 30 29 33 32 33 34 35 34 39 35 31 27 22 17 13 9 7 6 5 6 5 6 7 6 6 5 5 5 5 6 9 13 16 11 23
7 9 12 13 20 24 28 29 30 29 31 32 31 32 30 37 38 35 29 23 20 17 13 9 6 5 4 5 5 6 6 6 5 6 8 8 8 8 8 10 16 13 11
9 11 10 14 20 24 27 28 28 27 32 34 32 31 33 37 36 30 24 21 18 16 12 7 5 4 4 5 6 6 6 6 8 9 10 10 11 12 11 10 11 12 11
9 9 10 14 18 22 25 26 27 30 32 29 29 29 32 35 32 27 23 20 17 14 10 7 4 3 3 5 6 6 6 9 10 9 11 11 12 12 13 13 14 15 20
11 10 11 14 17 21 27 28 29 31 30 29 28 30 32 32 29 25 21 18 16 12 9 6 4 3 4 5 6 7 8 9 11 11 11 13 13 12 13 14 16 19 21
8 10 13 18 20 20 22 24 28 31 30 29 30 32 33 31 28 24 20 17 14 11 8 5 3 3 4 5 6 8 9 11 11 13 14 14 13 14 14 15 17 20 23
6 10 14 14 17 19 20 24 29 32 31 33 33 32 32 30 27 23 19 16 13 10 7 4 3 4 5 6 7 9 10 10 12 14 14 14 14 15 15 16 19 22 24
7 10 11 12 16 19 21 24 29 34 35 34 34 33 30 28 25 21 18 15 12 9 6 4 4 5 7 9 9 9 11 13 14 16 16 14 14 15 17 20 22 23 26
7 8 10 12 15 19 21 25 31 34 35 35 33 30 27 25 23 20 17 14 10 8 5 3 4 7 9 10 9 10 12 15 16 17 16 15 17 19 20 24 25 28 26
8 9 11 13 13 19 21 25 29 33 34 33 31 29 27 24 21 19 16 12 9 6 3 4 7 10 11 11 9 11 12 15 14 16 16 20 21 22 21 25 26 27 29
11 11 12 12 17 20 26 26 32 33 32 32 29 27 25 23 20 17 14 11 7 4 4 6 9 11 12 10 12 13 14 14 16 17 20 20 18 22 22 26 28 22 24
11 12 11 15 19 24 27 32 32 31 31 29 28 25 24 22 19 15 11 8 4 3 6 8 10 12 12 11 13 14 14 15 16 20 21 20 21 21 25 29 21 25 25
10 11 16 20 23 26 31 33 29 29 29 28 26 23 22 21 16 12 8 5 3 5 7 9 11 13 13 13 14 15 15 15 17 20 19 19 20 23 28 26 27 27 26
16 20 21 23 26 25 31 31 27 27 25 26 24 22 19 17 13 10 6 4 4 6 9 10 11 11 13 15 15 15 15 16 19 19 17 17 22 27 25 28 26 23 28
18 23 23 21 23 29 33 27 25 23 27 26 24 20 16 14 11 8 5 4 5 8 9 12 13 13 15 15 15 16 16 18 20 19 20 21 24 25 29 27 22 23 28
15 20 24 22 23 29 33 25 25 28 27 25 22 18 14 11 9 6 5 5 7 9 12 15 15 13 17 17 16 16 17 19 20 21 21 24 24 28 26 22 21 24 24
15 19 26 25 24 27 33 30 28 27 25 22 19 16 12 9 7 6 6 6 9 11 11 11 13 17 17 18 17 17 19 20 22 20 24 23 24 24 20 19 22 22 19
18 23 26 23 21 27 28 32 28 24 22 20 16 12 9 8 6 6 7 9 9 10 11 13 15 17 17 16 17 19 20 19 19 20 19 21 21 18 19 19 19 19 20
19 21 23 23 23 30 29 26 23 20 19 17 13 10 8 6 5 6 7 9 9 11 13 14 15 16 17 17 21 21 22 21 23 24 19 18 18 19 20 21 21 21 22
21 22 23 27 26 28 25 21 18 15 17 15 11 8 6 4 4 6 8 9 10 11 12 13 14 16 16 19 19 21 20 23 21 18 16 17 17 19 20 22 24 24 24
Wind_Direction
259 268 272 270 262 248 237 214 190 188 182 173 164 163 164 168 166 162 160 155 150 144 136 115 96 71 56 52 43 33 26 20 16 2 356 14 21 271 355 321 322 346 347
263 264 260 247 237 234 214 191 186 185 181 173 166 160 165 161 159 157 155 153 148 141 129 113 94 74 69 63 44 34 31 30 30 18 347 4 346 340 324 25 338 331 331
250 255 242 232 227 214 199 190 184 179 171 166 164 154 154 152 150 154 152 150 147 138 126 111 95 88 74 58 45 38 36 31 33 43 31 345 342 333 320 314 348 331 340
233 243 239 218 219 214 195 180 182 172 174 175 165 161 158 159 164 162 155 145 144 134 123 114 106 92 73 60 49 42 38 36 28 23 24 20 292 315 309 283 300 307 317
231 235 229 220 216 202 189 182 174 174 178 178 171 161 154 163 163 157 149 146 139 132 126 120 111 93 73 60 48 38 34 34 35 27 359 351 325 268 284 305 306 313 317
236 240 234 213 177 188 182 179 173 172 178 180 172 167 169 162 156 155 151 147 140 134 130 125 114 91 74 55 41 28 23 24 21 14 359 316 287 287 294 294 312 307 318
249 237 193 181 167 172 174 172 171 169 176 174 171 177 171 172 167 163 160 151 144 141 138 135 117 94 65 48 30 14 11 9 2 348 331 310 277 284 299 305 309 302 313
229 233 214 186 176 168 167 168 168 166 170 172 172 176 171 173 169 168 161 153 149 146 142 140 120 89 61 35 15 6 0 355 351 337 326 312 299 278 285 294 315 316 306
232 224 193 189 171 166 168 166 164 165 173 177 178 174 172 174 166 160 156 151 148 145 143 138 117 88 52 19 3 357 351 351 340 332 323 309 303 287 279 282 299 308 310
216 202 190 170 170 163 158 159 165 166 175 180 175 169 168 164 159 157 153 151 147 146 143 136 119 82 34 5 353 351 345 337 333 326 315 311 311 297 284 275 281 284 289
230 199 167 155 152 150 154 157 163 167 168 167 165 161 158 158 157 156 152 151 147 143 141 134 111 60 16 358 350 344 335 329 325 325 322 318 315 303 297 287 281 282 286
224 167 149 140 145 147 148 149 153 159 161 160 159 157 156 156 154 152 151 150 146 140 135 121 86 35 10 357 342 330 325 326 329 334 329 321 319 309 302 294 290 288 288
116 137 140 145 145 141 139 140 148 155 155 157 155 152 152 153 150 149 149 146 141 133 121 99 59 25 359 344 330 320 323 324 332 334 328 319 315 308 307 304 296 291 288
152 146 139 137 136 136 137 136 140 152 153 154 153 151 151 150 147 145 143 140 133 123 106 80 37 360 345 333 327 322 319 322 327 332 327 320 314 308 306 301 296 295 296
149 147 137 129 126 126 128 132 140 148 152 150 149 147 147 146 142 139 137 131 122 108 93 54 9 350 337 333 328 324 319 319 320 325 320 316 314 304 302 302 303 301 296
152 139 133 133 133 133 131 132 138 144 149 146 145 145 144 141 138 135 130 122 113 104 77 17 353 342 337 335 328 324 317 314 308 311 310 317 315 309 302 305 303 299 304
153 144 145 139 135 136 136 134 140 147 146 144 144 143 141 136 134 131 126 118 112 89 33 359 343 338 337 338 330 324 314 311 310 310 309 308 306 307 306 303 303 302 310
149 142 136 126 129 133 136 139 141 142 142 139 140 141 140 133 131 128 122 115 94 43 5 348 338 337 341 335 329 323 313 312 312 311 311 307 304 306 309 309 316 318 311
141 130 135 134 132 134 138 136 135 137 135 137 140 141 138 131 129 123 116 104 57 7 347 343 344 339 335 335 329 326 318 312 311 312 311 308 309 313 317 323 320 314 311
123 127 125 125 126 134 138 129 128 132 132 139 136 134 131 127 124 119 107 68 16 350 346 347 343 340 333 338 331 324 316 317 314 312 306 307 318 319 321 323 320 315 310
117 121 125 126 129 135 136 123 127 124 135 133 129 127 125 122 114 104 77 34 7 357 348 343 345 345 346 334 328 329 323 316 313 317 317 319 320 320 323 320 316 307 314
103 116 115 112 122 133 131 120 118 132 132 131 127 124 119 112 102 81 57 28 8 358 355 346 340 337 341 342 331 326 321 320 320 319 318 315 321 322 320 317 316 318 319
99 110 111 106 115 130 135 120 131 136 133 130 124 120 113 102 86 61 44 23 9 1 351 340 332 331 333 331 331 322 321 321 320 318 315 321 322 321 321 321 320 322 322
108 114 110 105 102 127 128 129 137 138 135 126 124 119 107 94 73 47 33 18 3 354 343 337 329 322 320 319 319 317 319 319 321 320 323 322 323 322 320 324 326 324 320
103 108 108 107 110 124 126 133 137 138 129 127 122 114 106 85 54 33 26 9 2 348 333 326 320 318 318 321 322 322 320 325 325 326 321 324 329 328 328 327 325 324 322
106 101 105 111 119 124 126 132 136 140 134 125 121 112 93 66 33 18 3 8 359 347 336 328 324 319 315 320 322 319 326 325 326 326 324 325 325 323 323 320 318 320 319